Location: Madrid
(40.4167°N, 3.7036°W)
Time: 14:04:15
(UTC+00:00)

ISS - Pass Details

Date: 13 July 2024
Orbit: 410 x 424 km, 51.6° (Epoch: 14 July)

Event Time Altitude Azimuth Distance (km) Brightness Sun altitude
Rises 21:46:28 0° 284° (WNW) 2,337 0.9 -18.3°
Reaches altitude 10° 21:49:14 10° 309° (NW) 1,477 0.2 -18.6°
Maximum altitude 21:51:14 15° 346° (NNW) 1,211 -0.5 -18.9°
Drops below altitude 10° 21:53:16 10° 24° (NNE) 1,480 -0.6 -19.1°
Sets 21:56:02 0° 49° (NE) 2,345 0.1 -19.4°
